White Plains, CT

5:33 AM EDT on April 26, 2017 (GMT -0400)
Westchester County

Weather History for KHPN - August, 2011

Change the Weather History Date:

Saturday, August 6, 2011

  Actual Average Record
Temperature  
Mean Temperature 76 °F -  
Max Temperature 82 °F 80 °F 90 °F (2001)
Min Temperature 70 °F 63 °F 53 °F (1992)
Cooling Degree Days 10    
Growing Degree Days 26 (Base 50)    
Moisture  
Dew Point 67 °F    
Average Humidity 79    
Maximum Humidity 93    
Minimum Humidity 54    
Precipitation  
Precipitation 0.29 in - - ()
Sea Level Pressure  
Sea Level Pressure 29.99 in    
Wind  
Wind Speed 4 mph (SSE)    
Max Wind Speed 13 mph    
Max Gust Speed 21 mph    
Visibility 10 miles    
Events Rain    
Averages and records for this station are not official NWS values.
T = Trace of Precipitation, MM = Missing Value Source: NWS Daily Summary

Daily Weather History Graph

Daily Weather History Graph

Search for Another Location

Airport or City:

Trip Planner

Search our weather history database for the weather conditions in past years. The results will help you decide how hot, cold, wet, or windy it might be!

Date:

Astronomy

Aug. 06, 2011 Rise Set
Actual Time 5:55 AM EDT 8:05 PM EDT
Civil Twilight 5:24 AM EDT 8:35 PM EDT
Nautical Twilight 4:47 AM EDT 9:13 PM EDT
Astronomical Twilight 4:06 AM EDT 9:54 PM EDT
Moon 2:07 PM EDT (8/6) 11:56 PM EDT (8/6)
Length of Visible Light 15h 11m
Length of Day
14h 10m
First Quarter, 52% of the Moon is Illuminated
Aug 6
First Quarter
Aug 13
Full
Aug 21
Last Quarter
Aug 28
New
Sep 4
First Quarter

Hourly Weather History & Observations

Time (EDT) Temp. Heat Index Dew Point Humidity Pressure Visibility Wind Dir Wind Speed Gust Speed Precip Events Conditions
12:56 AM 71.1 °F - 66.9 °F 87% 30.06 in 9.0 mi Calm Calm - N/A   Clear
1:56 AM 70.0 °F - 66.0 °F 87% 30.06 in 9.0 mi Calm Calm - N/A   Clear
2:56 AM 71.1 °F - 66.0 °F 84% 30.06 in 10.0 mi Calm Calm - N/A   Scattered Clouds
3:56 AM 71.1 °F - 66.0 °F 84% 30.05 in 10.0 mi Calm Calm - N/A   Mostly Cloudy
4:56 AM 71.1 °F - 66.0 °F 84% 30.05 in 10.0 mi Calm Calm - N/A   Partly Cloudy
5:56 AM 71.1 °F - 66.0 °F 84% 30.06 in 9.0 mi Variable 3.5 mph - N/A   Mostly Cloudy
6:56 AM 71.1 °F - 66.0 °F 84% 30.07 in 10.0 mi Variable 3.5 mph - N/A   Mostly Cloudy
7:18 AM 71.6 °F - 66.2 °F 83% 30.08 in 10.0 mi Calm Calm - N/A   Mostly Cloudy
7:56 AM 73.0 °F - 66.9 °F 81% 30.06 in 10.0 mi WSW 5.8 mph - N/A   Mostly Cloudy
8:56 AM 73.9 °F - 66.0 °F 76% 30.05 in 10.0 mi Variable 5.8 mph - N/A   Mostly Cloudy
9:56 AM 75.0 °F - 64.9 °F 71% 30.05 in 10.0 mi Variable 4.6 mph - N/A   Mostly Cloudy
10:56 AM 77.0 °F - 66.0 °F 69% 30.03 in 10.0 mi SSE 5.8 mph - N/A   Mostly Cloudy
11:56 AM 79.0 °F - 66.0 °F 64% 30.02 in 10.0 mi South 12.7 mph - N/A   Mostly Cloudy
12:56 PM 81.0 °F 82.2 °F 63.0 °F 54% 30.01 in 10.0 mi SSE 11.5 mph - N/A   Mostly Cloudy
1:56 PM 80.6 °F 81.8 °F 62.6 °F 54% 30.01 in 10.0 mi South 8.1 mph 20.7 mph N/A   Mostly Cloudy
2:56 PM 78.1 °F - 64.9 °F 64% 29.99 in 10.0 mi South 9.2 mph - N/A   Mostly Cloudy
3:56 PM 78.1 °F - 64.0 °F 62% 29.97 in 10.0 mi South 11.5 mph 17.3 mph N/A   Mostly Cloudy
4:56 PM 77.0 °F - 66.9 °F 71% 29.95 in 10.0 mi SSE 11.5 mph - N/A   Mostly Cloudy
5:56 PM 75.0 °F - 66.9 °F 76% 29.93 in 10.0 mi South 8.1 mph 18.4 mph N/A   Mostly Cloudy
6:40 PM 73.4 °F - 68.0 °F 83% 29.93 in 7.0 mi SSE 8.1 mph - 0.02 in Rain Light Rain
6:56 PM 73.0 °F - 69.1 °F 87% 29.91 in 10.0 mi SSE 6.9 mph - 0.02 in Rain Light Rain
7:56 PM 72.0 °F - 69.1 °F 91% 29.91 in 4.0 mi SSE 8.1 mph - 0.07 in Rain Rain
8:56 PM 72.0 °F - 70.0 °F 93% 29.90 in 10.0 mi SE 8.1 mph - 0.05 in   Mostly Cloudy
9:56 PM 72.0 °F - 70.0 °F 93% 29.89 in 10.0 mi SSE 6.9 mph - 0.03 in   Mostly Cloudy
10:56 PM 72.0 °F - 70.0 °F 93% 29.88 in 10.0 mi South 3.5 mph - 0.03 in   Mostly Cloudy
11:56 PM 72.0 °F - 69.1 °F 91% 29.86 in 10.0 mi Variable 6.9 mph 20.7 mph 0.09 in Rain Light Rain